Weather History for North Wilkesboro, NC

Change the Weather History Date:

Friday, May 24, 2013

  Actual Average Record
Temperature  
Mean Temperature 57 °F -  
Max Temperature 66 °F 79 °F 90 °F (1960)
Min Temperature 46 °F 54 °F 37 °F (1961)
Degree Days  
Heating Degree Days 8    
Growing Degree Days 7 (Base 50)    
Moisture  
Dew Point 43 °F    
Average Humidity 59    
Maximum Humidity 100    
Minimum Humidity 32    
Precipitation  
Precipitation 0.00 in - - ()
Sea Level Pressure  
Sea Level Pressure 30.11 in    
Wind  
Wind Speed 6 mph (NW)    
Max Wind Speed 18 mph    
Max Gust Speed 32 mph    
Visibility 10 miles    
Events      
Averages and records for this station are not official NWS values.
T = Trace of Precipitation, MM = Missing Value Source: NWS Daily Summary

Daily Weather History Graph

Daily Weather History Graph

Search for Another Location

Airport:

Trip Planner

Search our weather history database for the weather conditions in past years. The results will help you decide how hot, cold, wet, or windy it might be!

Date:

Astronomy

May. 24, 2013 Rise Set
Actual Time 6:11 AM EDT 8:31 PM EDT
Civil Twilight 5:42 AM EDT 9:00 PM EDT
Nautical Twilight 5:06 AM EDT 9:36 PM EDT
Astronomical Twilight 4:27 AM EDT 10:16 PM EDT
Moon 8:12 PM EDT (5/24) 5:41 AM EDT (5/24)
Length of Visible Light 15h 17m
Length of Day
14h 19m
Full, 100% of the Moon is Illuminated
May 24
Full
May 25
Full
May 31
Last Quarter
Jun 8
New
Jun 16
First Quarter

Hourly Weather History & Observations

Time (EDT) Temp. Dew Point Humidity Pressure Visibility Wind Dir Wind Speed Gust Speed Precip Events Conditions
12:15 AM 59.0 °F 59.0 °F 100% 29.98 in 10.0 mi NW 3.5 mph - N/A   Overcast
12:35 AM 60.8 °F 57.2 °F 88% 29.98 in 10.0 mi NW 3.5 mph - N/A   Overcast
12:55 AM 60.8 °F 55.4 °F 82% 29.99 in 10.0 mi NNW 3.5 mph - N/A   Overcast
1:15 AM 60.8 °F 55.4 °F 82% 29.98 in 10.0 mi NW 3.5 mph - N/A   Overcast
1:35 AM 59.0 °F 55.4 °F 88% 29.97 in 10.0 mi Calm Calm - N/A   Mostly Cloudy
1:55 AM 57.2 °F 55.4 °F 94% 29.97 in 10.0 mi NW 3.5 mph - N/A   Scattered Clouds
2:15 AM 57.2 °F 55.4 °F 94% 29.97 in 10.0 mi WNW 4.6 mph - N/A   Mostly Cloudy
2:35 AM 59.0 °F 53.6 °F 82% 29.96 in 10.0 mi WNW 4.6 mph - N/A   Mostly Cloudy
2:55 AM 59.0 °F 53.6 °F 82% 29.95 in 10.0 mi WNW 4.6 mph - N/A   Scattered Clouds
3:15 AM 57.2 °F 53.6 °F 88% 29.95 in 10.0 mi Calm Calm - N/A   Scattered Clouds
3:35 AM 55.4 °F 53.6 °F 94% 29.95 in 10.0 mi WNW 4.6 mph - N/A   Clear
3:55 AM 57.2 °F 51.8 °F 82% 29.96 in 10.0 mi Calm Calm - N/A   Clear
4:15 AM 57.2 °F 51.8 °F 82% 29.96 in 10.0 mi West 3.5 mph - N/A   Clear
4:35 AM 57.2 °F 51.8 °F 82% 29.95 in 10.0 mi Calm Calm - N/A   Clear
4:55 AM 57.2 °F 51.8 °F 82% 29.96 in 10.0 mi WNW 4.6 mph - N/A   Clear
5:15 AM 59.0 °F 50.0 °F 72% 29.96 in 10.0 mi WNW 4.6 mph - N/A   Mostly Cloudy
5:35 AM 57.2 °F 50.0 °F 77% 29.96 in 10.0 mi NW 4.6 mph - N/A   Mostly Cloudy
5:55 AM 57.2 °F 50.0 °F 77% 29.97 in 10.0 mi NW 3.5 mph - N/A   Scattered Clouds
6:15 AM 53.6 °F 51.8 °F 94% 29.97 in 10.0 mi NW 3.5 mph - N/A   Clear
6:35 AM 57.2 °F 51.8 °F 82% 29.97 in 10.0 mi NNW 5.8 mph - N/A   Scattered Clouds
6:55 AM 59.0 °F 51.8 °F 77% 29.98 in 10.0 mi NW 8.1 mph 19.6 mph N/A   Scattered Clouds
7:15 AM 59.0 °F 51.8 °F 77% 29.99 in 10.0 mi WNW 10.4 mph - N/A   Scattered Clouds
7:35 AM 59.0 °F 51.8 °F 77% 30.00 in 10.0 mi WNW 10.4 mph 16.1 mph N/A   Scattered Clouds
7:55 AM 60.8 °F 50.0 °F 68% 30.01 in 10.0 mi WNW 6.9 mph 16.1 mph N/A   Mostly Cloudy
8:15 AM 60.8 °F 50.0 °F 68% 30.02 in 10.0 mi NW 4.6 mph - N/A   Mostly Cloudy
8:35 AM 60.8 °F 48.2 °F 63% 30.03 in 10.0 mi WNW 12.7 mph 23.0 mph N/A   Clear
8:55 AM 60.8 °F 46.4 °F 59% 30.05 in 10.0 mi NW 15.0 mph 26.5 mph N/A   Clear
9:15 AM 60.8 °F 46.4 °F 59% 30.08 in 10.0 mi NW 9.2 mph 17.3 mph N/A   Scattered Clouds
9:35 AM 60.8 °F 44.6 °F 55% 30.09 in 10.0 mi NW 11.5 mph 21.9 mph N/A   Scattered Clouds
9:55 AM 60.8 °F 42.8 °F 52% 30.11 in 10.0 mi NW 15.0 mph 29.9 mph N/A   Clear
10:15 AM 60.8 °F 42.8 °F 52% 30.12 in 10.0 mi NW 13.8 mph 25.3 mph N/A   Clear
10:35 AM 59.0 °F 42.8 °F 55% 30.14 in 10.0 mi NW 16.1 mph 27.6 mph N/A   Clear
10:55 AM 59.0 °F 42.8 °F 55% 30.15 in 10.0 mi NW 11.5 mph 27.6 mph N/A   Scattered Clouds
11:15 AM 59.0 °F 42.8 °F 55% 30.16 in 10.0 mi NNW 16.1 mph 32.2 mph N/A   Scattered Clouds
11:35 AM 59.0 °F 42.8 °F 55% 30.17 in 10.0 mi NW 12.7 mph 24.2 mph N/A   Scattered Clouds
11:55 AM 59.0 °F 41.0 °F 51% 30.17 in 10.0 mi NNW 17.3 mph 24.2 mph N/A   Scattered Clouds
12:15 PM 59.0 °F 41.0 °F 51% 30.17 in 10.0 mi WNW 10.4 mph 17.3 mph N/A   Mostly Cloudy
12:35 PM 60.8 °F 42.8 °F 52% 30.17 in 10.0 mi NNW 5.8 mph - N/A   Scattered Clouds
12:55 PM 60.8 °F 42.8 °F 52% 30.17 in 10.0 mi NNW 6.9 mph 16.1 mph N/A   Clear
1:15 PM 62.6 °F 42.8 °F 48% 30.16 in 10.0 mi WSW 9.2 mph - N/A   Scattered Clouds
1:35 PM 64.4 °F 42.8 °F 45% 30.16 in 10.0 mi West 5.8 mph - N/A   Scattered Clouds
1:55 PM 64.4 °F 39.2 °F 40% 30.16 in 10.0 mi North 10.4 mph 18.4 mph N/A   Clear
2:15 PM 64.4 °F 33.8 °F 32% 30.16 in 10.0 mi North 18.4 mph 25.3 mph N/A   Clear
2:35 PM 64.4 °F 35.6 °F 34% 30.16 in 10.0 mi North 15.0 mph 23.0 mph N/A   Clear
2:55 PM 64.4 °F 35.6 °F 34% 30.16 in 10.0 mi North 16.1 mph 25.3 mph N/A   Clear
3:15 PM 64.4 °F 35.6 °F 34% 30.16 in 10.0 mi North 16.1 mph 24.2 mph N/A   Clear
3:35 PM 66.2 °F 35.6 °F 32% 30.16 in 10.0 mi North 12.7 mph 20.7 mph N/A   Clear
3:55 PM 66.2 °F 35.6 °F 32% 30.16 in 10.0 mi NW 9.2 mph 16.1 mph N/A   Clear
4:15 PM 64.4 °F 33.8 °F 32% 30.16 in 10.0 mi NW 11.5 mph 23.0 mph N/A   Clear
4:35 PM 66.2 °F 37.4 °F 35% 30.16 in 10.0 mi WNW 12.7 mph 19.6 mph N/A   Clear
4:55 PM 64.4 °F 35.6 °F 34% 30.16 in 10.0 mi NW 12.7 mph 18.4 mph N/A   Clear
5:15 PM 64.4 °F 35.6 °F 34% 30.16 in 10.0 mi NW 10.4 mph 20.7 mph N/A   Clear
5:35 PM 64.4 °F 35.6 °F 34% 30.17 in 10.0 mi NW 8.1 mph 19.6 mph N/A   Clear
5:55 PM 64.4 °F 37.4 °F 37% 30.17 in 10.0 mi WNW 8.1 mph 18.4 mph N/A   Clear
6:15 PM 64.4 °F 33.8 °F 32% 30.18 in 10.0 mi NW 11.5 mph 25.3 mph N/A   Clear
6:35 PM 62.6 °F 33.8 °F 34% 30.18 in 10.0 mi NW 12.7 mph 20.7 mph N/A   Clear
6:55 PM 62.6 °F 33.8 °F 34% 30.19 in 10.0 mi NW 12.7 mph 23.0 mph N/A   Clear
7:15 PM 62.6 °F 33.8 °F 34% 30.20 in 10.0 mi NW 9.2 mph 21.9 mph N/A   Clear
7:35 PM 60.8 °F 33.8 °F 36% 30.21 in 10.0 mi WNW 9.2 mph - N/A   Clear
7:55 PM 60.8 °F 33.8 °F 36% 30.22 in 10.0 mi WNW 4.6 mph - N/A   Clear
8:15 PM 57.2 °F 35.6 °F 44% 30.22 in 10.0 mi NW 5.8 mph - N/A   Clear
8:35 PM 55.4 °F 35.6 °F 47% 30.22 in 10.0 mi West 3.5 mph - N/A   Clear
8:55 PM 55.4 °F 35.6 °F 47% 30.23 in 10.0 mi West 3.5 mph - N/A   Clear
9:15 PM 53.6 °F 35.6 °F 51% 30.24 in 10.0 mi West 3.5 mph - N/A   Clear
9:35 PM 51.8 °F 37.4 °F 58% 30.24 in 10.0 mi West 3.5 mph - N/A   Clear
9:55 PM 51.8 °F 35.6 °F 54% 30.25 in 10.0 mi NW 5.8 mph - N/A   Clear
10:15 PM 51.8 °F 35.6 °F 54% 30.26 in 10.0 mi WNW 4.6 mph - N/A   Clear
10:35 PM 51.8 °F 37.4 °F 58% 30.27 in 10.0 mi WNW 3.5 mph - N/A   Clear
10:55 PM 51.8 °F 35.6 °F 54% 30.27 in 10.0 mi NW 3.5 mph - N/A   Clear
11:15 PM 50.0 °F 37.4 °F 62% 30.27 in 10.0 mi WNW 3.5 mph - N/A   Clear
11:35 PM 48.2 °F 35.6 °F 62% 30.27 in 10.0 mi NNW 3.5 mph - N/A   Clear
11:55 PM 46.4 °F 37.4 °F 71% 30.27 in 10.0 mi Calm Calm - N/A   Clear